7 * 24
多渠道服务支持
IRIDIUM 36 是美国 Iridium 公司运营的 Iridium 卫星星座中的一颗低轨通信卫星,属于第二代 Iridium NEXT 计划的一部分。该卫星于 2017 年发射,运行在约 780 公里的极地轨道上,提供全球范围的语音和数据通信服务。IRIDIUM 36 采用先进设计,支持多种通信功能,并为政府、航空、航海和应急响应等领域提供可靠连接。该星座由 66 颗主卫星组成,具备抗干扰和高可用性特点。
美国
(US)
| 数据来源 | 国际轨道数据 |
| 星历时间: | 2025-12-13T05:07:08+0800 12小时前 查看轨道信息 |
| 半长轴: | 7143.966km |
| 偏心率: | 0.0002104 |
| 轨道倾角: | 86.396° |
| 近地点辐角 | 101.763° |
| 升交点赤经 | 97.926° |
| 平近点角 | 258.380° |
| 近地点: | 764.327km |
| 远地点: | 767.335km |
| 周期: | 100.154分钟 |
| 每日圈数: | 14.377843 |